K6XH-6 Weather Reports


Display with metric or nautical units.
time (UTC)temp
F
wind
direction
speed
MPH
gust
MPH
rain 1hr
in
rain 24hr
in
rain mn
in
humidity
%
barometer
mb
20200813140012 83 354 1.0 3.0 0.00 0.02 0.00 83 1027.0
20200813134509 82 301 0.0 4.0 0.00 0.02 0.00 88 1026.7
20200813130012 83 330 2.0 2.0 0.00 0.02 0.00 92 1026.6
20200813124509 81 152 0.0 3.0 0.00 0.02 0.00 96 1026.4
20200813121510 78 0 0.0 0.0 0.00 0.02 0.00 99 1026.4
20200813120011 78 269 0.0 2.0 0.00 0.02 0.00 99 1026.4
20200813113019 78 315 0.0 1.0 0.00 0.02 0.00 99 1026.5
20200813110010 75 270 1.0 2.0 0.00 0.02 0.00 99 1026.3
20200813103012 74 270 1.0 2.0 0.00 0.02 0.00 99 1026.3
20200813100010 74 270 0.0 2.0 0.00 0.02 0.00 99 1026.3
20200813091510 74 270 0.0 2.0 0.00 0.02 0.00 99 1026.1
20200813090009 74 270 0.0 2.0 0.00 0.02 0.00 99 1026.0
20200813083013 74 0 0.0 0.0 0.00 0.02 0.00 99 1026.0
20200813081517 74 270 0.0 1.0 0.00 0.02 0.00 99 1026.0
20200813080014 74 270 0.0 2.0 0.00 0.02 0.00 99 1025.9
20200813074511 74 270 1.0 2.0 0.00 0.02 0.00 99 1025.8
20200813073012 74 270 0.0 2.0 0.00 0.02 0.00 99 1025.8
20200813071509 74 0 0.0 0.0 0.00 0.02 0.00 99 1025.8
20200813070012 74 270 0.0 2.0 0.00 0.02 0.00 99 1025.8
20200813061509 74 225 1.0 2.0 0.00 0.02 0.00 99 1025.9
20200813053016 75 71 0.0 3.0 0.00 0.02 0.00 99 1026.0
20200813051515 75 59 0.0 4.0 0.00 0.02 0.00 99 1026.2
20200813043011 74 0 0.0 0.0 0.00 0.02 0.00 99 1025.8
20200813033014 74 314 0.0 1.0 0.00 0.02 0.01 99 1026.3
20200813031509 74 314 0.0 1.0 0.00 0.02 0.01 99 1026.1
20200813023012 74 174 1.0 2.0 0.00 0.02 0.01 99 1026.2
20200813021511 74 176 1.0 2.0 0.00 0.02 0.01 99 1026.2
20200813014509 73 252 1.0 2.0 0.00 0.02 0.01 99 1026.2
20200813013016 74 225 2.0 3.0 0.00 0.02 0.01 99 1026.2
20200813011511 74 270 1.0 3.0 0.00 0.02 0.01 99 1026.0
20200813010012 74 25 1.0 3.0 0.00 0.02 0.01 99 1026.2
20200813001515 73 270 1.0 2.0 0.00 0.02 0.01 98 1026.1
20200813000016 73 207 0.0 2.0 0.00 0.02 0.01 97 1026.0
20200812233017 74 159 2.0 4.0 0.00 0.02 0.01 96 1025.6
20200812231509 74 216 0.0 5.0 0.00 0.02 0.01 94 1025.6
20200812230011 75 173 3.0 8.0 0.00 0.02 0.01 92 1025.7
20200812224509 77 248 2.0 9.0 0.00 0.02 0.01 93 1025.7
20200812223009 78 248 2.0 3.0 0.00 0.02 0.01 97 1025.8
20200812214509 78 146 0.0 2.0 0.00 0.02 0.01 98 1024.5
20200812194509 75 142 1.0 8.0 0.00 0.02 0.01 95 1024.7
20200812184513 83 273 1.0 2.0 0.00 0.01 0.01 92 1024.8
20200812181514 82 104 0.0 4.0 0.00 0.01 0.01 91 1024.6
20200812173015 80 61 1.0 5.0 0.01 0.01 0.01 91 1025.2
20200812171513 82 60 3.0 9.0 0.01 0.01 0.01 91 1025.2
20200812170015 84 50 1.0 8.0 0.01 0.01 0.01 88 1025.5
20200812163018 87 64 4.0 9.0 0.00 0.00 0.00 78 1025.3
20200812161510 89 77 4.0 8.0 0.00 0.00 0.00 75 1025.4
20200812154513 92 110 2.0 4.0 0.00 0.00 0.00 61 1025.7
20200812150020 94 165 2.0 4.0 0.00 0.00 0.00 58 1025.9
20200812144513 94 116 1.0 2.0 0.00 0.00 0.00 62 1025.8